Current Version              Previous Version:    01  02  03  04  05  06  07  08  09  10  11  12  13  14  15  16  17  18  19  20  21  22  23  24  25  26  27  28  29  30  
   31  32  33  34  35  36  37  38  39  40  41  42  43  44  45  46  47  48  49  50  51  52  53  54  55  56  57  58  59  60  

[Printable]
536
ASUS44 KFWD 281110
RWRTX
NORTH TEXAS HOURLY WEATHER ROUNDUP
NATIONAL WEATHER SERVICE FORT WORTH TX
500 AM CST FRI NOV 28 2014

NOTE: "FAIR" INDICATES FEW OR NO CLOUDS BELOW 12,000 FEET WITH NO
SIGNIFICANT WEATHER AND/OR OBSTRUCTIONS TO VISIBILITY.

TXZ118-119-281200-
DALLAS/FORT WORTH METROPLEX

CITY           SKY/WX    TMP DP  RH WIND       PRES   REMARKS
DFW AIRPORT    CLEAR     42  29  59 S8        30.26F WCI  37
DALLAS LOVE    FAIR      41  30  65 SE8       30.28F WCI  36
FTW MEACHAM    CLEAR     44  30  57 CALM      30.26F
DAL-EXECUTIVE  CLEAR     46  29  51 S6        30.27F
FTW-ALLIANCE   CLEAR     39  28  64 CALM      30.26F
FTW-SPINKS     CLEAR     46  31  56 S7        30.28F
ARLINGTON      CLEAR     45  28  51 S7        30.27F
GRAND PRAIRIE  CLEAR     43  32  65 S6        30.30S WCI  39
LANCASTER      CLEAR     37  27  68 CALM      30.30F
$$

TXZ091>094-102>105-117-120-121-131>134-281200-
NORTH CENTRAL TEXAS

CITY           SKY/WX    TMP DP  RH WIND       PRES   REMARKS
SHRMAN/DENISON CLEAR     44  32  64 S13       30.26F WCI  37
BOWIE          CLEAR     41  31  67 SE5       30.22F WCI  38
BRIDGEPORT     CLEAR     32  30  91 CALM      30.26F
DECATUR        CLEAR     45  29  54 S10       30.24F WCI  39
DENTON         CLEAR     35  29  78 S9        30.26F WCI  28
MCKINNEY       CLEAR     33  29  85 S5        30.28F WCI  29
GREENVILLE     CLEAR     36  30  80 SE3       30.30F
ROCKWALL       CLEAR     41  32  70 SE7       30.28F WCI  36
TERRELL        CLEAR     41  32  70 S6        30.31F WCI  37
WAXAHACHIE     CLEAR     41  32  70 S7        30.30S WCI  37
CLEBURNE       CLEAR     41  32  70 S8        30.28F WCI  36
GRANBURY       CLEAR     37  32  82 CALM      30.28S
$$

TXZ083>090-098>101-113>116-127>130-139>142-154-155-281200-
WESTERN NORTH TEXAS

CITY           SKY/WX    TMP DP  RH WIND       PRES   REMARKS
WICHITA FALLS  CLEAR     41  31  67 S10       30.18F WCI  35
WF-KICKAPOO    CLEAR     38  31  76 S8        30.20F WCI  32
VERNON         PTCLDY    36  28  75 S7        30.17F WCI  30
ABILENE        CLEAR     48  34  58 S14       30.21F
ABILENE-DYESS  CLEAR     48  35  60 SW16      30.19F
BRECKENRIDGE   CLEAR     46  33  59 S9        30.20F
GRAHAM         CLEAR     43  33  68 SE6       30.21F WCI  40
MINERAL WELLS  CLEAR     38  31  76 SE9       30.23F WCI  31
STEPHENVILLE   CLEAR     40  32  71 S5        30.27F WCI  37
COMANCHE       CLEAR     44  35  68 S8        30.25F WCI  40
BROWNWOOD      MOCLDY    34  32  93 CALM      30.26F
COLEMAN        CLEAR     41  35  79 S7        30.25F WCI  36
BRADY          CLEAR     41  34  75 S5        30.25F WCI  38
$$

TXZ143>147-156>162-174-175-281200-
CENTRAL TEXAS

CITY           SKY/WX    TMP DP  RH WIND       PRES   REMARKS
WACO           CLEAR     41  34  76 S8        30.30F WCI  36
WACO-MCGREGOR  CLEAR     41  28  60 S7        30.31F WCI  36
HILLSBORO      CLEAR     45  31  58 S9        30.28F
CORSICANA      CLEAR     39  32  76 S6        30.32F WCI  35
MEXIA          CLEAR     39  33  80 S5        30.31F WCI  35
HEARNE         CLEAR     37  34  87 CALM      30.35F
CAMERON        CLEAR     38  35  86 SE3       30.33S
TEMPLE         CLEAR     39  28  65 S7        30.30F WCI  34
KILLEEN        CLEAR     44  35  69 S9        30.29F WCI  39
KILLEEN-SKYLRK CLEAR     43  28  56 CALM      30.29F
FORT HOOD      CLEAR     46  32  58 SE3       30.29F
GATESVILLE     CLEAR     43  32  65 CALM      30.31F
HAMILTON       CLEAR     41  32  70 S7        30.28F WCI  37
LAMPASAS       CLEAR     43  37  79 SW3       30.27F
$$

TXZ095>097-106>112-122>126-135>138-148>153-164>167-281200-
EAST TEXAS

CITY           SKY/WX    TMP DP  RH WIND       PRES   REMARKS
PARIS          CLEAR     34  28  80 SE8       30.31F WCI  27
SULPHUR SPRNGS CLEAR     43  31  60 S13       30.32F WCI  37
MOUNT PLEASANT CLEAR     35  31  85 SE3       30.34F
MINEOLA        CLEAR     36  34  93 SE6       30.33F WCI  31
TYLER          CLEAR     39  31  72 S7        30.33F WCI  34
LONGVIEW       CLEAR     39  33  79 S7        30.35F WCI  34
MARSHALL       CLEAR     38  35  87 CALM      30.38F
ATHENS         CLEAR     32  32 100 CALM      30.33F
PALESTINE      FAIR      42  34  73 SE3       30.35F
JACKSONVILLE   CLEAR     42  34  72 S9        30.36F WCI  37
HENDERSON      CLEAR     36  32  85 CALM      30.36F
NACOGDOCHES    CLEAR     32  28  86 CALM      30.37F
LUFKIN         CLEAR     39  33  79 SE5       30.37F WCI  36
$$

SUPPLEMENTAL OBSERVATIONS (CENTRAL)

CITY           SKY/WX    TMP DP  RH WIND       PRES   REMARKS
CADDO GRASSLND   N/A     39  28  65 S8          N/A  WCI  34
PAT MAYSE LAKE   N/A     43  32  65 SE13        N/A  WCI  36
GREENVILLE       N/A     43  30  61 S9          N/A  WCI  37
CEDAR HILL       N/A     48  30  49 S6          N/A
PALESTINE        N/A     41  32  70 E2          N/A
MCGREGOR         N/A     39  32  75 SW5         N/A  WCI  36
TEMPLE           N/A     41  32  70 S3          N/A
$$

SUPPLEMENTAL OBSERVATIONS (WEST)

CITY           SKY/WX    TMP DP  RH WIND       PRES   REMARKS
MILLERS CREEK    N/A     37  27  65 SW6         N/A  WCI  33
POSSUM KINGDOM   N/A     45  32  61 S5          N/A
LBJ GRASSLAND    N/A     43  28  56 SE6         N/A  WCI  39
GRANBURY         N/A     36  32  87 CALM        N/A
HAMBY            N/A     45  32  61 S9          N/A  WCI  40
IVIE RESERVOIR   N/A     46  34  61 S2          N/A
COLORADO BEND    N/A     45  34  65 S8          N/A
$$

SUPPLEMENTAL OBSERVATIONS (EAST)

CITY           SKY/WX    TMP DP  RH WIND       PRES   REMARKS
CLARKSVILLE      N/A     36  30  80 SE5         N/A  WCI  32
TEXARKANA        N/A     30  28  93 CALM        N/A
LINDEN           N/A     36  32  87 SE1         N/A
GILMER           N/A     39  32  75 S5          N/A  WCI  36
HENDERSON        N/A     37  32  81 S2          N/A
LUFKIN           N/A     39  34  81 MISG        N/A
N SABINE NF      N/A     32  30  93 MISG        N/A
S SABINE NF      N/A     34  32  93 CALM        N/A
$$

SUPPLEMENTAL OBSERVATIONS ARE A COLLECTION OF AUTOMATED INSTRUMENTS
THAT ARE MAINTAINED BY A VARIETY OF FEDERAL AND STATE AGENCIES.
CERTAIN ELEMENTS...SUCH AS HUMIDITY VALUES AND SUSTAINED WIND
SPEEDS...MAY BE APPROXIMATED.